• Em Portugal
  • Lista de países
  • Para 7 dias
  • Temperatura da água
  • Mapas de satélite
  • Mapa do tempo
  • Widgets de tempo
  • user-avatar
    Iniciar Sessão

    Previsão horária em Namibe

    Hoje, 15 Agosto, Quarta-feira

    Tempo Temperatura Precipitação Vento Pressão Humidade
    00:00 +23°C° 0 mm 1 m/s 761 mmHg 78%
    01:00 +23°C° 0 mm 1 m/s 762 mmHg 83%
    02:00 +23°C° 0 mm 1 m/s 761 mmHg 85%
    03:00 +23°C° 0 mm 1 m/s 761 mmHg 87%
    04:00 +22°C° 0 mm 1 m/s 761 mmHg 89%
    05:00 +22°C° 0 mm 1 m/s 761 mmHg 89%
    06:00 +22°C° 0 mm 1 m/s 761 mmHg 90%
    07:00 +21°C° 0 mm 2 m/s 762 mmHg 93%
    08:00 +24°C° 0 mm 2 m/s 762 mmHg 84%
    09:00 +25°C° 0 mm 2 m/s 762 mmHg 74%
    10:00 +27°C° 0 mm 2 m/s 762 mmHg 65%
    11:00 +28°C° 0 mm 3 m/s 762 mmHg 58%
    12:00 +30°C° 0 mm 4 m/s 761 mmHg 51%
    13:00 +32°C° 0 mm 4 m/s 761 mmHg 51%
    14:00 +30°C° 0 mm 5 m/s 760 mmHg 53%
    15:00 +30°C° 0 mm 5 m/s 760 mmHg 55%
    16:00 +29°C° 0 mm 5 m/s 760 mmHg 58%
    17:00 +27°C° 0 mm 5 m/s 760 mmHg 64%
    18:00 +26°C° 0 mm 4 m/s 760 mmHg 70%
    19:00 +24°C° 0 mm 3 m/s 760 mmHg 77%
    20:00 +24°C° 0 mm 3 m/s 761 mmHg 77%
    21:00 +24°C° 0 mm 2 m/s 761 mmHg 77%
    22:00 +24°C° 0 mm 2 m/s 761 mmHg 77%
    23:00 +24°C° 0 mm 2 m/s 761 mmHg 78%

    Amanhã, 16 Agosto, Quinta-feira

    Tempo Temperatura Precipitação Vento Pressão Humidade
    00:00 +24°C° 0 mm 2 m/s 761 mmHg 78%
    01:00 +23°C° 0 mm 2 m/s 761 mmHg 79%
    02:00 +23°C° 0 mm 2 m/s 760 mmHg 81%
    03:00 +23°C° 0 mm 2 m/s 760 mmHg 83%
    04:00 +21°C° 0 mm 2 m/s 760 mmHg 85%
    05:00 +21°C° 0 mm 2 m/s 760 mmHg 85%
    06:00 +21°C° 0 mm 2 m/s 760 mmHg 85%
    07:00 +21°C° 0 mm 2 m/s 760 mmHg 84%
    08:00 +24°C° 0 mm 2 m/s 761 mmHg 75%
    09:00 +27°C° 0 mm 2 m/s 761 mmHg 65%
    10:00 +29°C° 0 mm 2 m/s 761 mmHg 55%
    11:00 +30°C° 0 mm 3 m/s 761 mmHg 49%
    12:00 +33°C° 0 mm 4 m/s 760 mmHg 42%
    13:00 +35°C° 0 mm 6 m/s 760 mmHg 36%
    14:00 +33°C° 0 mm 6 m/s 759 mmHg 38%
    15:00 +32°C° 0 mm 6 m/s 759 mmHg 41%
    16:00 +30°C° 0 mm 6 m/s 758 mmHg 43%
    17:00 +28°C° 0 mm 5 m/s 759 mmHg 48%
    18:00 +26°C° 0 mm 4 m/s 759 mmHg 53%
    19:00 +24°C° 0 mm 3 m/s 760 mmHg 57%
    20:00 +24°C° 0 mm 3 m/s 760 mmHg 58%
    21:00 +24°C° 0 mm 3 m/s 760 mmHg 60%
    22:00 +24°C° 0 mm 3 m/s 761 mmHg 61%
    23:00 +22°C° 0 mm 3 m/s 761 mmHg 62%

    Depois de amanhã, 17 Agosto, Sexta-feira

    Tempo Temperatura Precipitação Vento Pressão Humidade
    00:00 +22°C° 0 mm 3 m/s 760 mmHg 64%
    01:00 +21°C° 0 mm 3 m/s 760 mmHg 65%
    02:00 +21°C° 0 mm 3 m/s 760 mmHg 67%
    03:00 +21°C° 0 mm 2 m/s 759 mmHg 69%
    04:00 +20°C° 0 mm 2 m/s 759 mmHg 71%
    05:00 +20°C° 0 mm 2 m/s 759 mmHg 72%
    06:00 +20°C° 0 mm 2 m/s 759 mmHg 72%
    07:00 +20°C° 0 mm 2 m/s 759 mmHg 73%
    08:00 +24°C° 0 mm 2 m/s 760 mmHg 63%
    09:00 +26°C° 0 mm 2 m/s 760 mmHg 54%
    10:00 +29°C° 0 mm 2 m/s 760 mmHg 44%
    11:00 +31°C° 0 mm 2 m/s 759 mmHg 37%
    12:00 +35°C° 0 mm 3 m/s 758 mmHg 30%
    13:00 +38°C° 0 mm 4 m/s 758 mmHg 23%
    14:00 +35°C° 0 mm 4 m/s 757 mmHg 31%
    15:00 +32°C° 0 mm 4 m/s 756 mmHg 39%
    16:00 +29°C° 0 mm 4 m/s 756 mmHg 48%
    17:00 +27°C° 0 mm 3 m/s 756 mmHg 52%
    18:00 +26°C° 0 mm 3 m/s 757 mmHg 56%
    19:00 +24°C° 0 mm 2 m/s 757 mmHg 60%
    20:00 +24°C° 0 mm 1 m/s 757 mmHg 60%
    21:00 +24°C° 0 mm 1 m/s 758 mmHg 60%
    22:00 +24°C° 0 mm 1 m/s 758 mmHg 60%
    23:00 +24°C° 0 mm 1 m/s 758 mmHg 61%

    18 Agosto, Sábado

    Tempo Temperatura Precipitação Vento Pressão Humidade
    00:00 +24°C° 0 mm 2 m/s 758 mmHg 63%
    01:00 +22°C° 0 mm 3 m/s 758 mmHg 64%
    02:00 +22°C° 0 mm 3 m/s 757 mmHg 68%
    03:00 +21°C° 0 mm 3 m/s 757 mmHg 73%
    04:00 +20°C° 0 mm 3 m/s 757 mmHg 77%
    05:00 +20°C° 0 mm 3 m/s 757 mmHg 80%
    06:00 +20°C° 0 mm 3 m/s 758 mmHg 82%
    07:00 +20°C° 0 mm 3 m/s 758 mmHg 84%
    08:00 +22°C° 0 mm 3 m/s 759 mmHg 74%
    09:00 +25°C° 0 mm 3 m/s 759 mmHg 65%
    10:00 +27°C° 0 mm 4 m/s 759 mmHg 55%
    11:00 +28°C° 0 mm 4 m/s 758 mmHg 53%
    12:00 +30°C° 0 mm 5 m/s 758 mmHg 50%
    13:00 +32°C° 0 mm 6 m/s 757 mmHg 48%
    14:00 +29°C° 0 mm 6 m/s 757 mmHg 54%
    15:00 +28°C° 0 mm 6 m/s 757 mmHg 59%
    16:00 +27°C° 0 mm 6 m/s 757 mmHg 65%
    17:00 +26°C° 0 mm 5 m/s 757 mmHg 71%
    18:00 +23°C° 0 mm 4 m/s 758 mmHg 76%
    19:00 +23°C° 0 mm 2 m/s 759 mmHg 82%
    20:00 +23°C° 0 mm 2 m/s 759 mmHg 83%
    21:00 +23°C° 0 mm 1 m/s 760 mmHg 84%
    22:00 +22°C° 0 mm 1 m/s 760 mmHg 85%
    23:00 +22°C° 0 mm 1 m/s 760 mmHg 86%

    19 Agosto, Domingo

    Tempo Temperatura Precipitação Vento Pressão Humidade
    00:00 +21°C° 0 mm 2 m/s 760 mmHg 87%
    01:00 +21°C° 0 mm 2 m/s 759 mmHg 88%
    02:00 +21°C° 0 mm 2 m/s 759 mmHg 88%
    03:00 +21°C° 0 mm 2 m/s 759 mmHg 88%
    04:00 +21°C° 0 mm 2 m/s 758 mmHg 88%
    05:00 +22°C° 0 mm 1 m/s 759 mmHg 88%
    06:00 +22°C° 0 mm 1 m/s 759 mmHg 89%
    07:00 +22°C° 0 mm 1 m/s 760 mmHg 89%
    08:00 +24°C° 0 mm 2 m/s 760 mmHg 81%
    09:00 +25°C° 0 mm 2 m/s 760 mmHg 72%
    10:00 +27°C° 0 mm 3 m/s 760 mmHg 64%
    11:00 +28°C° 0 mm 3 m/s 760 mmHg 60%
    12:00 +29°C° 0 mm 4 m/s 759 mmHg 55%
    13:00 +30°C° 0 mm 5 m/s 759 mmHg 51%
    14:00 +29°C° 0 mm 5 m/s 758 mmHg 56%
    15:00 +28°C° 0 mm 5 m/s 758 mmHg 60%
    16:00 +26°C° 0 mm 5 m/s 758 mmHg 65%
    17:00 +25°C° 0 mm 4 m/s 759 mmHg 70%
    18:00 +24°C° 0 mm 3 m/s 760 mmHg 75%
    19:00 +23°C° 0 mm 2 m/s 760 mmHg 80%
    20:00 +23°C° 0 mm 2 m/s 761 mmHg 80%
    21:00 +23°C° 0 mm 1 m/s 761 mmHg 80%
    22:00 +23°C° 0 mm 1 m/s 762 mmHg 80%
    23:00 +23°C° 0 mm 1 m/s 762 mmHg 80%

    20 Agosto, Segunda-feira

    Tempo Temperatura Precipitação Vento Pressão Humidade
    00:00 +23°C° 0 mm 1 m/s 761 mmHg 80%
    01:00 +21°C° 0 mm 0 m/s 761 mmHg 80%
    02:00 +20°C° 0 mm 0 m/s 760 mmHg 82%
    03:00 +20°C° 0 mm 0 m/s 760 mmHg 84%
    04:00 +20°C° 0 mm 0 m/s 760 mmHg 86%
    05:00 +22°C° 0 mm 1 m/s 760 mmHg 87%
    06:00 +22°C° 0 mm 1 m/s 760 mmHg 87%
    07:00 +22°C° 0 mm 1 m/s 761 mmHg 87%
    08:00 +23°C° 0 mm 1 m/s 761 mmHg 81%
    09:00 +24°C° 0 mm 1 m/s 761 mmHg 75%
    10:00 +25°C° 0 mm 2 m/s 762 mmHg 68%
    11:00 +27°C° 0 mm 3 m/s 761 mmHg 61%
    12:00 +28°C° 0 mm 4 m/s 760 mmHg 54%
    13:00 +30°C° 0 mm 5 m/s 759 mmHg 47%
    14:00 +29°C° 0 mm 5 m/s 759 mmHg 51%
    15:00 +28°C° 0 mm 5 m/s 759 mmHg 56%
    16:00 +27°C° 0 mm 5 m/s 759 mmHg 61%
    17:00 +26°C° 0 mm 5 m/s 759 mmHg 67%
    18:00 +23°C° 0 mm 4 m/s 760 mmHg 73%
    19:00 +22°C° 0 mm 4 m/s 761 mmHg 79%
    20:00 +21°C° 0 mm 4 m/s 761 mmHg 79%
    21:00 +21°C° 0 mm 3 m/s 762 mmHg 80%
    22:00 +21°C° 0 mm 3 m/s 762 mmHg 81%
    23:00 +21°C° 0 mm 3 m/s 762 mmHg 81%
    Mostrar mais